NATO ENSB-DGAA

Flight info

Callsign NATO
Flight time N/A
Altitude 30000
Route INPAR M604 OMEXA/N0457F320 M604 OSVIG/N0452F340 M604 DANKO P850 GOLUM N866 UPGAS DCT TIPAN N866 LARDI/N0453F330 L74 AMGOD DCT DENOX/N0452F350 N872 MEDIL UN872 LESDO UM728 KOVIN/N0438F290 UL194 ODEBU/N0453F350 UL612 OGULO DCT NARAK DCT PUMAL N859 MJV L129 TUKRO/N0449F360 N851 ASMOT/N0456F350 N861 SADAF UA29 CHE/N0454F360 UA29 BAY UM608 ROFER UG859 BAKAB UA603 TURUT
Aircraft A21N/M-SDE2E3FGHIRWXY/LB1

Departure

Time 2026-05-07 22:24
Airport Svalbard Airport, Longyear (ENSB)

Arrival

Time N/A
Airport Kotoka International Airport (DGAA)
Time Latitude Longitude Altitude Speed Heading
2026-05-07 21:50 78.24623 15.49329 103 ft 0 kts 15°
2026-05-07 22:10 78.24623 15.49328 103 ft 1 kts 15°
2026-05-07 22:10 78.24611 15.49314 102 ft 2 kts 10°
2026-05-07 22:10 78.24592 15.49307 102 ft 3 kts 357°
2026-05-07 22:10 78.24572 15.49324 102 ft 3 kts 342°
2026-05-07 22:11 78.24554 15.49366 102 ft 3 kts 328°
2026-05-07 22:11 78.24537 15.49428 102 ft 3 kts 315°
2026-05-07 22:11 78.24524 15.49504 102 ft 3 kts 305°
2026-05-07 22:11 78.24514 15.49589 103 ft 3 kts 297°
2026-05-07 22:12 78.24506 15.49682 102 ft 3 kts 289°
2026-05-07 22:12 78.24503 15.49723 102 ft 0 kts 286°
2026-05-07 22:13 78.24503 15.49722 102 ft 0 kts 286°
2026-05-07 22:14 78.24503 15.49721 102 ft 0 kts 286°
2026-05-07 22:14 78.24507 15.49657 102 ft 4 kts 286°
2026-05-07 22:14 78.24516 15.49482 103 ft 7 kts 274°
2026-05-07 22:15 78.24478 15.49263 102 ft 10 kts 239°
2026-05-07 22:15 78.24481 15.48907 102 ft 10 kts 284°
2026-05-07 22:15 78.24499 15.48574 102 ft 10 kts 284°
2026-05-07 22:15 78.24518 15.48221 102 ft 11 kts 284°
2026-05-07 22:16 78.24541 15.47851 102 ft 12 kts 286°
2026-05-07 22:16 78.24564 15.47459 102 ft 12 kts 286°
2026-05-07 22:16 78.24588 15.47047 102 ft 13 kts 286°
2026-05-07 22:16 78.24613 15.46613 102 ft 13 kts 286°
2026-05-07 22:17 78.24639 15.46160 102 ft 14 kts 284°
2026-05-07 22:17 78.24665 15.45688 102 ft 15 kts 287°
2026-05-07 22:17 78.24695 15.45193 102 ft 15 kts 285°
2026-05-07 22:17 78.24723 15.44682 102 ft 16 kts 284°
2026-05-07 22:18 78.24753 15.44151 102 ft 17 kts 286°
2026-05-07 22:18 78.24811 15.43018 102 ft 17 kts 285°
2026-05-07 22:18 78.24848 15.42551 102 ft 14 kts 290°
2026-05-07 22:19 78.24876 15.42175 102 ft 11 kts 292°
2026-05-07 22:19 78.24892 15.41894 102 ft 9 kts 223°
2026-05-07 22:19 78.24854 15.42008 102 ft 8 kts 86°
2026-05-07 22:19 78.24854 15.42242 102 ft 6 kts 102°
2026-05-07 22:20 78.24851 15.42307 102 ft 0 kts 103°
2026-05-07 22:23 78.24849 15.42332 102 ft 2 kts 103°
2026-05-07 22:23 78.24844 15.42420 102 ft 4 kts 106°
2026-05-07 22:23 78.24830 15.42662 102 ft 19 kts 105°
2026-05-07 22:23 78.24745 15.44175 103 ft 76 kts 105°
2026-05-07 22:24 78.24553 15.47608 103 ft 131 kts 105°
2026-05-07 22:24 78.24268 15.52593 228 ft 165 kts 106°
2026-05-07 22:24 78.23948 15.58160 767 ft 176 kts 106°
2026-05-07 22:24 78.23612 15.64111 1399 ft 185 kts 107°
2026-05-07 22:25 78.23264 15.70271 2001 ft 193 kts 107°
2026-05-07 22:25 78.22517 15.75940 2295 ft 211 kts 141°
2026-05-07 22:25 78.21123 15.78674 2626 ft 227 kts 169°
2026-05-07 22:25 78.19480 15.78419 3075 ft 242 kts 194°
2026-05-07 22:26 78.17988 15.74572 3735 ft 248 kts 222°
2026-05-07 22:26 78.17031 15.67562 4430 ft 253 kts 250°
2026-05-07 22:26 78.16545 15.59440 5228 ft 256 kts 256°
2026-05-07 22:26 78.16127 15.51420 5933 ft 261 kts 257°
2026-05-07 22:27 78.15689 15.42737 6704 ft 265 kts 257°
2026-05-07 22:27 78.15253 15.33981 7466 ft 269 kts 257°
2026-05-07 22:27 78.14810 15.25055 8215 ft 273 kts 257°
2026-05-07 22:27 78.14358 15.15961 8938 ft 278 kts 257°
2026-05-07 22:28 78.13899 15.06766 9640 ft 282 kts 257°
2026-05-07 22:28 78.13433 14.97481 10322 ft 286 kts 257°
2026-05-07 22:28 78.12952 14.87973 10816 ft 298 kts 257°
2026-05-07 22:28 78.12440 14.77908 10920 ft 324 kts 257°
2026-05-07 22:29 78.11869 14.66766 11001 ft 348 kts 256°
2026-05-07 22:29 78.11265 14.55121 11142 ft 368 kts 256°
2026-05-07 22:29 78.10629 14.42976 11522 ft 379 kts 256°
2026-05-07 22:29 78.10094 14.32825 11937 ft 385 kts 256°
2026-05-07 22:30 78.09405 14.19837 12517 ft 390 kts 256°
2026-05-07 22:30 78.08724 14.07102 13093 ft 394 kts 256°
2026-05-07 22:30 78.08028 13.94181 13662 ft 398 kts 256°
2026-05-07 22:30 78.07199 13.81567 14188 ft 402 kts 246°
2026-05-07 22:31 78.05669 13.70220 14704 ft 406 kts 227°
2026-05-07 22:31 78.03437 13.61674 15192 ft 408 kts 208°
2026-05-07 22:31 78.00817 13.57067 15620 ft 409 kts 189°
2026-05-07 22:31 77.97998 13.55447 16139 ft 409 kts 184°
2026-05-07 22:32 77.95149 13.54193 16656 ft 411 kts 183°
2026-05-07 22:32 77.92308 13.52965 17141 ft 413 kts 183°
2026-05-07 22:32 77.89416 13.51699 17607 ft 416 kts 183°
2026-05-07 22:32 77.86532 13.50422 18052 ft 418 kts 183°
2026-05-07 22:33 77.83640 13.49130 18480 ft 421 kts 183°
2026-05-07 22:33 77.80705 13.47808 18898 ft 423 kts 183°
2026-05-07 22:33 77.77769 13.46480 19298 ft 425 kts 183°
2026-05-07 22:33 77.74851 13.45156 19679 ft 427 kts 183°
2026-05-07 22:34 77.71859 13.43797 20056 ft 429 kts 183°
2026-05-07 22:34 77.68873 13.42442 20416 ft 432 kts 183°
2026-05-07 22:34 77.65915 13.41102 20757 ft 433 kts 183°
2026-05-07 22:34 77.62905 13.39740 21090 ft 435 kts 183°
2026-05-07 22:35 77.59886 13.38378 21411 ft 437 kts 183°
2026-05-07 22:35 77.56848 13.37011 21721 ft 439 kts 183°
2026-05-07 22:35 77.53804 13.35645 22022 ft 441 kts 183°
2026-05-07 22:35 77.50740 13.34276 22319 ft 443 kts 183°
2026-05-07 22:36 77.47665 13.32905 22611 ft 444 kts 183°
2026-05-07 22:36 77.44620 13.31554 22890 ft 446 kts 183°
2026-05-07 22:36 77.41481 13.30165 23168 ft 448 kts 183°
2026-05-07 22:36 77.38416 13.28815 23433 ft 450 kts 183°
2026-05-07 22:37 77.35304 13.27447 23695 ft 451 kts 183°
2026-05-07 22:37 77.32181 13.26082 23949 ft 453 kts 183°
2026-05-07 22:37 77.29018 13.24705 24196 ft 455 kts 183°
2026-05-07 22:37 77.25859 13.23337 24439 ft 457 kts 183°
2026-05-07 22:38 77.22687 13.21970 24677 ft 459 kts 183°
2026-05-07 22:38 77.19507 13.20606 24911 ft 460 kts 183°
2026-05-07 22:38 77.16314 13.19243 25141 ft 462 kts 183°
2026-05-07 22:38 77.13104 13.17889 25391 ft 463 kts 183°
2026-05-07 22:39 77.09895 13.17309 25600 ft 464 kts 178°
2026-05-07 22:39 77.06659 13.17350 25830 ft 465 kts 178°
2026-05-07 22:39 77.03470 13.17317 26060 ft 466 kts 178°
2026-05-07 22:39 77.00222 13.17165 26304 ft 467 kts 179°
2026-05-07 22:40 76.96988 13.16964 26561 ft 467 kts 179°
2026-05-07 22:40 76.93738 13.16745 26832 ft 467 kts 179°
2026-05-07 22:40 76.92678 13.16672 26920 ft 467 kts 179°